Starlink 11340

operational
NORAD ID: 61690 Int'l Des: 2024-195 Owner: SPXS Country: US Constellation: starlink
LEOCIRCULAR

About Starlink 11340

Description loading...

Live Position

Loading 3D Globe...

Upcoming Passes

Altitude History

Altitude vs Time

uPlot chart will show altitude changes over time

Two-Line Element Set

1 61690U 24195D 25256.95950544 -.00000155 00000-0 35843-5 0 9994
2 61690 53.1590 177.6610 0001336 88.5949 271.5221 15.69706468 51278
Epoch: Sep 13, 2025 • Age: 31 hours

Current Status

Altitude 365.4 km
Velocity 7.70 km/s
Sub-Earth Point 53.22°N, 172.78°E
Launch Date Oct 30, 2024
Age 0.8 years
Type internet

Technical Details

Classification Payload
Mass 960.00 kg
Dry Mass 910.00 kg
Total Mass 960.00 kg
Length 0.30 m
Diameter 4.10 m
Span 29.00 m
Shape Box + pan
Manufacturer SPXS
Bus Type Starlink V2MD
Phase Status In Orbit
Owner/State SPXS/US

Large Constellations

Loading constellations...